This is the latest recevied weather packets stored in our database for station/object DJ9MA-10. If no packets are shown the sender has not sent any weather packets the latest 10 day(s).
| Time | Temp. | Humidity | Pressure | Rain* | Wind** | Luminosity | Snow |
|---|---|---|---|---|---|---|---|
| 1777457626 | 19.44° C | 40% | 968.9 hPa | - | - | - | - |
| 1777456726 | 21.67° C | 37% | 968.7 hPa | - | - | - | - |
| 1777455826 | 21.67° C | 37% | 968.8 hPa | - | - | - | - |
| 1777454926 | 21.67° C | 37% | 968.7 hPa | - | - | - | - |
| 1777454026 | 22.78° C | 34% | 968.8 hPa | - | - | - | - |
| 1777453126 | 25.56° C | 32% | 968.7 hPa | - | - | - | - |
| 1777452226 | 25° C | 32% | 968.6 hPa | - | - | - | - |
| 1777451326 | 24.44° C | 33% | 968.7 hPa | - | - | - | - |
| 1777450426 | 23.33° C | 35% | 968.7 hPa | - | - | - | - |
| 1777449526 | 21.11° C | 39% | 968.6 hPa | - | - | - | - |
| 1777448626 | 17.78° C | 43% | 968.7 hPa | - | - | - | - |
| 1777447726 | 20.56° C | 39% | 968.5 hPa | - | - | - | - |
| 1777446826 | 19.44° C | 43% | 968.6 hPa | - | - | - | - |
| 1777445926 | 18.33° C | 47% | 968.5 hPa | - | - | - | - |
| 1777445026 | 17.78° C | 51% | 968.6 hPa | - | - | - | - |
| 1777444125 | 18.33° C | 54% | 968.4 hPa | - | - | - | - |
| 1777443225 | 16.11° C | 65% | 968.5 hPa | - | - | - | - |
| 1777442325 | 15° C | 70% | 968.3 hPa | - | - | - | - |
| 1777441425 | 14.44° C | 73% | 968.2 hPa | - | - | - | - |
| 1777440525 | 16.67° C | 67% | 968 hPa | - | - | - | - |
| 1777439625 | 16.67° C | 66% | 967.9 hPa | - | - | - | - |
| 1777438725 | 16.11° C | 63% | 967.6 hPa | - | - | - | - |
| 1777437825 | 15.56° C | 65% | 967.5 hPa | - | - | - | - |
| 1777436925 | 15.56° C | 66% | 967.3 hPa | - | - | - | - |
| 1777436025 | 15.56° C | 66% | 967.2 hPa | - | - | - | - |
* Rain since midnight (hover to see other rain measurements)
** Current wind speed in m/s (hover to see current wind gust speed)